Location: Karcze
(52.0945°N, 22.4786°E)
Time: 21:31:40
(UTC+00:00)

Transit 2A Rocket - Pass Details

Date: 31 July 2021
Orbit: 586 x 917 km, 66.7° (Epoch: 26 September)

Event Time Altitude Azimuth Distance (km) Brightness Sun altitude
Rises 14:34:57 0° 249° (WSW) 2,901 9.1 32.7°
Reaches altitude 10° 14:37:19 10° 259° (WSW) 2,037 8.8 32.4°
Maximum altitude 14:41:31 34° 325° (NW) 1,115 6.5 31.7°
Drops below altitude 10° 14:46:06 10° 30° (NNE) 2,225 7.1 31.0°
Sets 14:48:48 0° 40° (NE) 3,211 7.8 30.6°
